1513616400.46,29186,7.44,72996.3,-16.91,-46.27,-46.21,0,*6D
1513616401.71,29187,7.44,72998.8,-16.89,-46.21,-46.15,0,*64
1513616402.96,29188,7.44,72998.3,-16.89,-46.35,-46.27,0,*6F
1513616404.24,29189,7.44,72996.0,-16.89,-46.49,-46.49,0,*6D
1513616405.51,29190,7.44,72998.3,-16.89,-46.49,-46.41,0,*6D
1513616406.73,29191,7.44,72998.3,-16.89,-46.21,-46.21,0,*64
1513616407.94,29192,7.44,73000.8,-16.89,-46.21,-46.21,0,*67
1513616409.19,29193,7.44,73002.5,-16.89,-46.15,-46.21,0,*61
1513616410.44,29194,7.44,73002.3,-16.89,-46.27,-46.21,0,*67
1513616411.66,29195,7.44,73006.8,-16.89,-46.21,-46.21,0,*60
1513616412.91,29196,7.44,73008.0,-16.89,-46.21,-46.07,0,*67
1513616414.17,29197,7.44,73008.5,-16.89,-45.81,-45.73,0,*6F
1513616415.41,29198,7.44,73010.8,-16.89,-45.95,-45.73,0,*65
1513616416.71,29199,7.44,73014.3,-16.87,-46.15,-46.15,0,*62
1513616418.01,29200,7.44,73014.0,-16.87,-46.15,-46.15,0,*61
1513616419.27,29201,7.44,73012.8,-16.87,-46.01,-46.01,0,*60
1513616420.49,29202,7.44,73012.5,-16.89,-46.01,-45.95,0,*63
1513616421.71,29203,7.44,73010.5,-16.89,-46.01,-45.95,0,*62
1513616422.95,29204,7.44,73006.8,-16.85,-46.21,-46.15,0,*60
1513616424.22,29205,7.44,73008.3,-16.87,-46.21,-46.15,0,*63
1513616425.49,29206,7.44,73002.0,-16.87,-46.41,-46.21,0,*61
1513616426.73,29207,7.44,73002.8,-16.87,-46.21,-46.21,0,*66
1513616428.03,29208,7.44,73000.0,-16.87,-46.15,-46.15,0,*69
1513616429.33,29209,7.44,73002.0,-16.87,-46.27,-46.15,0,*69
1513616430.61,29210,7.44,73000.8,-16.87,-46.27,-46.21,0,*66
1513616431.85,29211,7.44,73004.5,-16.85,-46.21,-46.15,0,*64
1513616433.13,29212,7.44,73002.0,-16.85,-46.15,-46.15,0,*60
1513616434.4,29213,7.44,72998.5,-16.85,-46.15,-46.15,0,*61
1513616435.65,29214,7.44,72996.8,-16.85,-46.21,-46.15,0,*61
1513616436.95,29215,7.44,72998.0,-16.87,-46.15,-46.15,0,*65
1513616438.2,29216,7.44,72988.3,-16.87,-46.01,-46.01,0,*66
1513616439.5,29217,7.44,72994.3,-16.87,-46.27,-46.15,0,*66
1513616440.75,29218,7.44,72994.0,-16.85,-46.21,-46.15,0,*6D
1513616441.99,29219,7.44,72992.3,-16.85,-46.21,-46.15,0,*6C
1513616443.24,29220,7.44,72992.5,-16.85,-46.21,-46.15,0,*66
1513616444.45,29221,7.44,72994.0,-16.85,-46.21,-46.21,0,*60
1513616445.7,29222,7.44,72992.5,-16.85,-46.21,-46.15,0,*64
1513616446.97,29223,7.44,72992.5,-16.85,-46.27,-46.15,0,*63
1513616448.2,29224,7.44,72994.0,-16.85,-46.01,-46.01,0,*65
1513616449.48,29225,7.44,72994.0,-16.83,-46.07,-46.07,0,*62
1513616450.78,29226,7.44,72990.8,-16.81,-46.15,-46.15,0,*63
1513616452.08,29227,7.44,72994.5,-16.81,-46.15,-46.07,0,*61
1513616453.38,29228,7.44,72992.8,-16.81,-46.07,-46.07,0,*6D
1513616454.61,29229,7.44,72992.8,-16.83,-46.35,-46.21,0,*6B
1513616455.86,29230,7.44,72994.0,-16.83,-46.21,-46.15,0,*61
1513616457.15,29231,7.44,72994.8,-16.83,-46.15,-46.15,0,*67
1513616458.4,29232,7.44,72998.8,-16.81,-46.35,-46.21,0,*63
1513616459.68,29233,7.44,72994.3,-16.81,-45.73,-45.73,0,*67
1513616460.9,29234,7.44,72990.0,-16.83,-45.87,-45.95,0,*61
1513616462.17,29235,7.44,72990.0,-16.81,-46.21,-46.15,0,*66
1513616463.45,29236,7.44,73000.5,-16.81,-46.35,-46.15,0,*60
1513616464.72,29237,7.44,72992.5,-16.81,-46.07,-45.87,0,*68
1513616465.96,29238,7.44,72994.8,-16.81,-45.95,-45.95,0,*6C
1513616467.23,29239,7.44,72998.0,-16.81,-45.95,-46.07,0,*65
1513616468.48,29240,7.44,72998.0,-16.81,-45.95,-45.95,0,*63
1513616469.7,29241,7.44,72996.0,-16.83,-45.87,-45.87,0,*60
1513616470.93,29242,7.44,73004.5,-16.81,-45.87,-45.67,0,*6F
1513616472.22,29243,7.44,72998.5,-16.81,-45.73,-45.73,0,*60
1513616473.48,29244,7.44,72996.8,-16.81,-45.73,-45.53,0,*65
1513616474.69,29245,7.44,73002.5,-16.79,-45.67,-45.67,0,*61
1513616475.94,29246,7.44,73002.8,-16.77,-45.67,-45.61,0,*6A
1513616477.2,29247,7.44,73004.5,-16.77,-45.67,-45.81,0,*65
1513616478.44,29248,7.44,73006.0,-16.77,-45.87,-45.87,0,*62
1513616479.68,29249,7.44,73000.8,-16.77,-45.67,-45.67,0,*63
1513616480.93,29250,7.44,73006.8,-16.77,-46.01,-45.87,0,*66
1513616482.23,29251,7.44,73006.5,-16.77,-46.15,-46.07,0,*69
1513616483.53,29252,7.44,73004.0,-16.77,-46.27,-46.15,0,*68
1513616484.81,29253,7.44,73002.8,-16.79,-46.27,-46.15,0,*67
1513616486.09,29254,7.44,73000.3,-16.79,-46.27,-46.15,0,*60
1513616487.31,29255,7.44,72998.5,-16.75,-46.01,-46.01,0,*6C
1513616488.55,29256,7.44,72996.0,-16.77,-45.87,-45.87,0,*6D
1513616489.82,29257,7.44,72996.0,-16.77,-45.87,-45.81,0,*6A
1513616491.03,29258,7.44,72992.8,-16.75,-45.95,-45.95,0,*61
1513616492.3,29259,7.44,72994.0,-16.73,-46.07,-45.95,0,*6E
1513616493.58,29260,7.44,72992.5,-16.75,-46.27,-46.07,0,*68
1513616494.85,29261,7.44,72994.3,-16.73,-46.07,-46.01,0,*6B
1513616496.11,29262,7.44,72994.5,-16.73,-45.81,-45.95,0,*6B
1513616497.35,29263,7.44,72992.3,-16.75,-45.95,-45.81,0,*6C
1513616498.61,29264,7.44,72998.8,-16.75,-45.73,-45.81,0,*63
1513616499.87,29265,7.44,72992.5,-16.75,-45.81,-45.73,0,*62
1513616501.15,29266,7.44,72996.0,-16.73,-45.73,-45.73,0,*6A
1513616502.37,29267,7.44,73000.5,-16.75,-45.95,-45.95,0,*6D
1513616503.61,29268,7.44,73000.5,-16.75,-45.95,-45.81,0,*67
1513616504.87,29269,7.44,72998.0,-16.73,-45.73,-45.53,0,*67
1513616506.15,29270,7.44,73000.0,-16.73,-45.81,-45.81,0,*6D
1513616507.42,29271,7.44,72998.8,-16.73,-45.95,-45.81,0,*69
1513616508.68,29272,7.44,73000.0,-16.73,-45.95,-45.81,0,*6A
1513616509.95,29273,7.44,73000.5,-16.73,-46.01,-45.81,0,*65
1513616511.21,29274,7.44,72998.8,-16.73,-45.73,-45.61,0,*6A
1513616512.48,29275,7.44,73002.8,-16.73,-45.95,-45.81,0,*6D
1513616513.75,29276,7.44,73002.8,-16.73,-45.95,-45.81,0,*6E
1513616514.98,29277,7.44,72998.5,-16.69,-45.95,-45.87,0,*62
1513616516.22,29278,7.44,73000.0,-16.69,-45.87,-45.87,0,*6E
1513616517.48,29279,7.44,73004.3,-16.69,-45.87,-45.73,0,*64
1513616518.76,29280,7.44,73006.5,-16.69,-45.73,-45.73,0,*69
1513616520.05,29281,7.44,73008.8,-16.69,-45.47,-45.27,0,*6E
1513616521.31,29282,7.44,73006.0,-16.67,-45.47,-45.47,0,*65
1513616522.57,29283,7.44,73004.0,-16.69,-45.33,-45.27,0,*6F
1513616523.82,29284,7.44,73004.5,-16.67,-45.73,-45.73,0,*63
1513616525.08,29285,7.44,72998.8,-16.69,-45.73,-45.67,0,*69
1513616526.29,29286,7.44,72992.8,-16.67,-45.87,-45.87,0,*61
1513616527.51,29287,7.44,72994.3,-16.67,-45.95,-45.95,0,*60
1513616528.75,29288,7.44,72984.5,-16.69,-46.21,-46.01,0,*63
1513616530.02,29289,7.44,72982.5,-16.63,-46.15,-46.07,0,*69
1513616531.25,29290,7.44,72974.8,-16.67,-46.21,-46.01,0,*64
1513616532.49,29291,7.44,72982.8,-16.63,-46.15,-45.95,0,*68
1513616533.74,29292,7.44,72988.8,-16.67,-46.35,-46.15,0,*66
1513616534.98,29293,7.44,72994.3,-16.65,-45.95,-45.87,0,*64
1513616536.22,29294,7.44,73002.0,-16.63,-46.07,-45.87,0,*6D
1513616537.45,29295,7.44,73002.8,-16.65,-45.87,-45.87,0,*61
1513616538.68,29296,7.44,73004.3,-16.63,-45.81,-45.67,0,*6C
1513616539.92,29297,7.44,72998.3,-16.65,-45.67,-45.61,0,*65
1513616541.17,29298,7.44,72998.5,-16.65,-45.67,-45.47,0,*6E
1513616542.43,29299,7.44,72998.8,-16.65,-45.81,-45.67,0,*65
1513616543.7,29300,7.44,72996.0,-16.65,-45.27,-45.21,0,*6A
1513616544.94,29301,7.44,72996.5,-16.65,-45.61,-45.61,0,*6D
1513616546.2,29302,7.44,72994.8,-16.63,-45.81,-45.81,0,*68
1513616547.41,29303,7.44,72996.5,-16.63,-45.67,-45.61,0,*6F
1513616548.65,29304,7.44,72996.5,-16.63,-45.81,-45.61,0,*60
1513616549.88,29305,7.44,72994.3,-16.63,-45.81,-45.67,0,*67
1513616551.11,29306,7.44,72988.0,-16.63,-45.95,-45.81,0,*69
1513616552.33,29307,7.44,72986.0,-16.63,-45.95,-45.87,0,*6E
1513616553.54,29308,7.44,72984.5,-16.63,-45.87,-45.87,0,*62
1513616554.78,29309,7.44,72982.8,-16.61,-46.01,-45.87,0,*6C
1513616556.05,29310,7.44,72984.3,-16.61,-46.01,-45.81,0,*62
1513616557.32,29311,7.44,72982.3,-16.61,-46.07,-46.01,0,*6E
1513616558.62,29312,7.44,72980.3,-16.61,-46.07,-46.07,0,*6B
1513616559.86,29313,7.44,72982.5,-16.59,-46.21,-46.27,0,*67
1513616561.12,29314,7.44,72988.3,-16.61,-46.41,-46.21,0,*6B
1513616562.38,29315,7.44,72986.5,-16.59,-46.41,-46.27,0,*67
1513616563.67,29316,7.44,72986.8,-16.61,-46.41,-46.27,0,*6F
1513616564.92,29317,7.44,72988.0,-16.59,-46.21,-46.07,0,*61
1513616566.21,29318,7.44,72988.5,-16.61,-46.49,-46.27,0,*69
1513616567.49,29319,7.44,72990.3,-16.59,-46.49,-46.49,0,*6B
1513616568.78,29320,7.44,72994.0,-16.61,-46.49,-46.49,0,*6A
1513616570.08,29321,7.44,72988.8,-16.61,-46.61,-46.49,0,*61
1513616571.37,29322,7.44,72990.8,-16.61,-46.61,-46.41,0,*6A
1513616572.66,29323,7.44,72988.5,-16.61,-46.49,-46.49,0,*69
1513616573.9,29324,7.44,72988.8,-16.63,-46.69,-46.55,0,*63
1513616575.16,29325,7.44,72984.3,-16.65,-46.75,-46.69,0,*66
1513616576.4,29326,7.44,72992.8,-16.63,-46.75,-46.69,0,*63
1513616577.61,29327,7.44,72994.8,-16.63,-46.75,-46.75,0,*6F
1513616578.9,29328,7.44,72996.0,-16.65,-46.69,-46.69,0,*66
1513616580.16,29329,7.44,72994.8,-16.63,-46.69,-46.69,0,*61
1513616581.37,29330,7.44,72992.8,-16.63,-46.55,-46.55,0,*69
1513616582.62,29331,7.44,72992.8,-16.63,-46.55,-46.49,0,*65
1513616583.88,29332,7.44,72990.0,-16.65,-46.69,-46.55,0,*62
1513616585.14,29333,7.44,72988.3,-16.65,-46.69,-46.55,0,*63
1513616586.4,29334,7.44,72994.5,-16.65,-46.75,-46.69,0,*66
1513616587.64,29335,7.44,72994.3,-16.65,-46.75,-46.75,0,*6A
1513616588.93,29336,7.44,72988.3,-16.65,-46.49,-46.49,0,*69
1513616590.19,29337,7.44,72994.3,-16.65,-46.69,-46.75,0,*65
1513616591.48,29338,7.44,72994.3,-16.65,-46.69,-46.69,0,*67
1513616592.72,29339,7.44,72994.3,-16.69,-46.75,-46.75,0,*6A
1513616593.94,29340,7.44,72994.5,-16.67,-46.83,-46.75,0,*63
1513616595.16,29341,7.44,72992.0,-16.67,-46.75,-46.83,0,*62
1513616596.4,29342,7.44,72998.0,-16.67,-46.61,-46.75,0,*6D
1513616597.65,29343,7.44,72996.0,-16.69,-46.83,-46.83,0,*67
1513616598.9,29344,7.44,72994.8,-16.69,-46.83,-46.83,0,*60
1513616600.12,29345,7.44,72998.8,-16.67,-46.83,-46.75,0,*66
1513616601.37,29346,7.44,72996.3,-16.69,-46.83,-46.83,0,*62
1513616602.61,29347,7.44,72998.5,-16.69,-46.75,-46.75,0,*63
1513616603.83,29348,7.44,72996.5,-16.67,-46.83,-46.75,0,*6B
1513616605.07,29349,7.44,72998.5,-16.69,-46.75,-46.75,0,*6D
1513616606.36,29350,7.44,72996.5,-16.69,-46.61,-46.61,0,*65
1513616607.63,29351,7.44,72998.0,-16.73,-46.83,-46.89,0,*65
1513616608.9,29352,7.44,72996.3,-16.73,-46.83,-46.89,0,*66
1513616610.17,29353,7.44,72992.8,-16.73,-47.03,-46.83,0,*64
1513616611.42,29354,7.44,72996.3,-16.73,-46.83,-46.83,0,*6A
1513616612.69,29355,7.44,72996.3,-16.73,-46.83,-46.69,0,*6F
1513616613.96,29356,7.44,72998.8,-16.73,-46.83,-46.89,0,*62
1513616615.25,29357,7.44,73000.5,-16.73,-47.03,-46.89,0,*6A
1513616616.52,29358,7.44,73002.8,-16.75,-46.89,-46.69,0,*6E
1513616617.79,29359,7.44,73004.8,-16.75,-46.69,-46.69,0,*61
1513616619.05,29360,7.44,73006.5,-16.73,-46.83,-46.61,0,*61
1513616620.32,29361,7.44,73000.3,-16.75,-46.69,-46.61,0,*62
1513616621.6,29362,7.44,73002.8,-16.73,-46.69,-46.69,0,*6F
1513616622.85,29363,7.44,73006.0,-16.75,-46.83,-46.69,0,*6C
1513616624.08,29364,7.44,73002.3,-16.75,-46.83,-46.83,0,*6F
1513616625.33,29365,7.44,73000.5,-16.75,-46.89,-46.83,0,*64
1513616626.56,29366,7.44,72996.0,-16.75,-46.83,-46.83,0,*6D
1513616627.82,29367,7.44,73002.8,-16.75,-46.69,-46.61,0,*64
1513616629.08,29368,7.44,73000.5,-16.75,-46.69,-46.61,0,*6B
1513616630.35,29369,7.44,72998.0,-16.75,-46.61,-46.69,0,*6A
1513616631.61,29370,7.44,72996.5,-16.75,-46.61,-46.41,0,*68
1513616632.89,29371,7.44,73004.3,-16.75,-46.49,-46.27,0,*63
1513616634.15,29372,7.44,73000.3,-16.75,-46.41,-46.27,0,*68
1513616635.42,29373,7.44,73004.3,-16.75,-46.49,-46.41,0,*61
1513616636.72,29374,7.44,73000.0,-16.73,-46.61,-46.49,0,*62
1513616637.98,29375,7.44,73006.3,-16.75,-46.61,-46.61,0,*6F
1513616639.25,29376,7.44,73004.8,-16.75,-46.61,-46.41,0,*6E
1513616640.49,29377,7.44,73004.3,-16.75,-46.21,-46.07,0,*69
1513616641.74,29378,7.44,73002.8,-16.69,-46.21,-46.01,0,*6D
1513616642.96,29379,7.44,73006.0,-16.75,-46.21,-46.01,0,*61
1513616644.18,29380,7.44,73000.5,-16.75,-46.21,-46.01,0,*67
1513616645.43,29381,7.44,73000.3,-16.75,-46.27,-46.21,0,*62
1513616646.71,29382,7.44,73004.3,-16.75,-46.49,-46.49,0,*67
1513616647.99,29383,7.44,73000.8,-16.73,-46.41,-46.41,0,*60
1513616649.27,29384,7.44,73002.8,-16.75,-46.49,-46.49,0,*61
1513616650.56,29385,7.44,73000.3,-16.73,-46.49,-46.41,0,*6E
1513616651.83,29386,7.44,73004.0,-16.75,-46.41,-46.27,0,*63
1513616653.1,29387,7.44,73004.5,-16.75,-46.49,-46.27,0,*6A
1513616654.4,29388,7.44,73000.8,-16.73,-46.49,-46.27,0,*63
1513616655.64,29389,7.44,73006.3,-16.75,-46.49,-46.21,0,*62
1513616656.9,29390,7.44,73002.5,-16.75,-46.41,-46.41,0,*64
1513616658.15,29391,7.44,73006.0,-16.75,-46.27,-46.21,0,*63
1513616659.4,29392,7.44,73006.5,-16.75,-46.07,-46.01,0,*60
1513616660.67,29393,7.44,73006.0,-16.75,-46.07,-46.07,0,*67
1513616661.97,29394,7.44,73008.3,-16.73,-46.07,-46.07,0,*66
1513616663.25,29395,7.44,73010.8,-16.69,-46.15,-46.01,0,*69
1513616664.52,29396,7.44,73008.0,-16.73,-46.07,-46.01,0,*62
1513616665.77,29397,7.44,73014.8,-16.73,-46.01,-46.01,0,*65
1513616667.04,29398,7.44,73012.3,-16.73,-45.95,-45.81,0,*6F
1513616668.28,29399,7.44,73008.8,-16.73,-46.01,-45.95,0,*65
1513616669.52,29400,7.44,73008.0,-16.69,-45.95,-45.95,0,*67
1513616670.73,29401,7.44,73010.5,-16.67,-45.87,-45.95,0,*6B
1513616671.97,29402,7.44,73008.5,-16.69,-46.01,-45.95,0,*6B
1513616673.21,29403,7.44,73010.0,-16.69,-46.01,-45.95,0,*6A
1513616674.46,29404,7.44,73010.3,-16.69,-46.01,-46.01,0,*63
1513616675.7,29405,7.44,73012.5,-16.69,-46.01,-45.95,0,*6C
1513616676.94,29406,7.44,73012.3,-16.69,-45.95,-45.87,0,*62
1513616678.18,29407,7.44,73008.3,-16.69,-45.87,-45.87,0,*60
1513616679.39,29408,7.44,73010.0,-16.67,-45.87,-45.87,0,*61
1513616680.61,29409,7.44,73008.5,-16.67,-46.01,-45.87,0,*6D
1513616681.84,29410,7.44,73006.8,-16.67,-46.01,-46.01,0,*68
1513616683.1,29411,7.44,73002.8,-16.65,-46.07,-45.87,0,*60
1513616684.37,29412,7.44,73006.5,-16.65,-46.15,-45.95,0,*63
1513616685.59,29413,7.44,73000.5,-16.67,-46.01,-46.01,0,*6B
1513616686.82,29414,7.44,73000.3,-16.67,-46.21,-46.01,0,*6E
1513616688.08,29415,7.44,73002.0,-16.65,-46.07,-45.87,0,*64
1513616689.34,29416,7.44,72998.3,-16.65,-46.07,-45.87,0,*67
1513616690.61,29417,7.44,72994.5,-16.65,-46.07,-45.95,0,*65
1513616691.88,29418,7.44,72996.5,-16.65,-46.35,-46.15,0,*60
1513616693.12,29419,7.44,73000.3,-16.63,-46.35,-46.27,0,*66
1513616694.39,29420,7.44,73002.3,-16.63,-46.27,-46.27,0,*6F
1513616695.69,29421,7.44,72998.3,-16.65,-46.27,-46.27,0,*68
1513616696.98,29422,7.44,72996.8,-16.65,-46.27,-46.07,0,*69
1513616698.28,29423,7.44,72992.8,-16.65,-46.15,-46.15,0,*6A
1513616699.55,29424,7.44,72992.8,-16.65,-46.35,-46.27,0,*6E
1513616700.85,29425,7.44,72992.8,-16.65,-46.49,-46.49,0,*6C
1513616702.14,29426,7.44,72990.8,-16.65,-46.49,-46.27,0,*67
1513616703.41,29427,7.44,72998.5,-16.65,-46.35,-46.15,0,*6C
1513616704.71,29428,7.44,72998.8,-16.65,-46.27,-46.15,0,*60
1513616705.96,29429,7.44,72998.5,-16.63,-46.35,-46.15,0,*64
1513616707.22,29430,7.44,73000.0,-16.65,-46.35,-46.27,0,*6B
1513616708.49,29431,7.44,72992.0,-16.65,-46.35,-46.49,0,*62
1513616709.76,29432,7.44,72998.3,-16.65,-46.35,-46.27,0,*69
1513616711.03,29433,7.44,72996.8,-16.63,-46.27,-46.27,0,*6D
1513616712.3,29434,7.44,72994.5,-16.65,-46.27,-46.35,0,*6F
1513616713.52,29435,7.44,72998.0,-16.63,-46.35,-46.35,0,*6B
1513616714.77,29436,7.44,72994.0,-16.65,-46.35,-46.35,0,*6E
1513616715.98,29437,7.44,73002.8,-16.63,-46.35,-46.35,0,*69
1513616717.25,29438,7.44,73002.8,-16.65,-46.35,-46.27,0,*63
1513616718.5,29439,7.44,73000.8,-16.65,-46.35,-46.35,0,*61
1513616719.72,29440,7.44,72996.5,-16.63,-46.35,-46.35,0,*69
1513616720.95,29441,7.44,73000.0,-16.65,-46.55,-46.55,0,*6E
1513616722.22,29442,7.44,72998.5,-16.65,-46.55,-46.49,0,*60
1513616723.49,29443,7.44,72996.5,-16.65,-46.55,-46.49,0,*61
1513616724.73,29444,7.44,72998.8,-16.65,-46.55,-46.55,0,*6B
1513616725.97,29445,7.44,72994.5,-16.65,-46.55,-46.55,0,*6A
1513616727.21,29446,7.44,72996.8,-16.65,-46.55,-46.55,0,*69
1513616728.45,29447,7.44,72996.8,-16.65,-46.55,-46.55,0,*68
1513616729.68,29448,7.44,73000.0,-16.65,-46.75,-46.75,0,*67
1513616730.94,29449,7.44,72994.0,-16.65,-46.75,-46.69,0,*6B
1513616732.21,29450,7.44,72998.0,-16.67,-46.61,-46.61,0,*6C
1513616733.45,29451,7.44,72990.5,-16.67,-46.61,-46.55,0,*6A
1513616734.73,29452,7.44,72996.5,-16.69,-46.61,-46.61,0,*60
1513616735.95,29453,7.44,73000.3,-16.67,-46.75,-46.75,0,*6F
1513616737.21,29454,7.44,72998.5,-16.67,-46.61,-46.61,0,*68
1513616738.43,29455,7.44,72998.8,-16.67,-46.55,-46.55,0,*69
1513616739.67,29456,7.44,72996.8,-16.67,-46.55,-46.41,0,*6F
1513616740.89,29457,7.44,72994.5,-16.67,-46.55,-46.55,0,*6B
1513616742.11,29458,7.44,72996.0,-16.67,-46.55,-46.55,0,*64
1513616743.36,29459,7.44,72996.5,-16.67,-46.61,-46.55,0,*62
1513616744.59,29460,7.44,73000.5,-16.67,-46.41,-46.35,0,*6C
1513616745.83,29461,7.44,72998.8,-16.67,-46.41,-46.55,0,*6B
1513616747.08,29462,7.44,72998.0,-16.67,-46.55,-46.41,0,*68
1513616748.3,29463,7.44,72998.8,-16.67,-46.55,-46.35,0,*6A
1513616749.56,29464,7.44,72998.5,-16.69,-46.55,-46.61,0,*62
1513616750.8,29465,7.44,73000.5,-16.69,-46.55,-46.55,0,*64
1513616752.04,29466,7.44,73002.3,-16.67,-46.55,-46.41,0,*6C
1513616753.29,29467,7.44,72998.5,-16.69,-46.35,-46.35,0,*66
1513616754.54,29468,7.44,72998.5,-16.67,-46.35,-46.15,0,*65
1513616755.76,29469,7.44,72992.3,-16.67,-46.21,-46.01,0,*64
1513616757.04,29470,7.44,72992.8,-16.69,-46.35,-46.15,0,*62
1513616758.3,29471,7.44,72994.0,-16.67,-46.41,-46.41,0,*6F
1513616759.54,29472,7.44,72988.5,-16.69,-46.21,-46.21,0,*62
1513616760.79,29473,7.44,72984.5,-16.67,-46.15,-46.01,0,*68
1513616762.07,29474,7.44,72982.8,-16.69,-46.15,-46.01,0,*61
1513616763.31,29475,7.44,72986.3,-16.67,-46.55,-46.41,0,*6E
1513616764.53,29476,7.44,72984.3,-16.67,-46.35,-46.21,0,*6D
1513616765.76,29477,7.44,72986.0,-16.67,-46.35,-46.21,0,*6C
1513616767.01,29478,7.44,72990.0,-16.67,-46.41,-46.61,0,*64
1513616768.23,29479,7.44,72990.3,-16.67,-46.55,-46.55,0,*67
1513616769.47,29480,7.44,72984.0,-16.67,-46.41,-46.35,0,*62
1513616770.74,29481,7.44,72984.3,-16.69,-46.41,-46.35,0,*6D
1513616771.98,29482,7.44,72986.0,-16.67,-46.35,-46.41,0,*60
1513616773.24,29483,7.44,72984.5,-16.67,-46.41,-46.61,0,*60
1513616774.48,29484,7.44,72984.3,-16.67,-46.55,-46.41,0,*60
1513616775.73,29485,7.44,72980.3,-16.67,-46.61,-46.55,0,*63
1513616776.99,29486,7.44,72980.8,-16.67,-46.61,-46.61,0,*67
1513616778.23,29487,7.44,72984.3,-16.67,-46.55,-46.61,0,*61
1513616779.47,29488,7.44,72988.5,-16.67,-46.61,-46.75,0,*6C
1513616780.71,29489,7.44,72988.5,-16.69,-46.55,-46.35,0,*60
1513616781.98,29490,7.44,72986.8,-16.67,-46.41,-46.41,0,*60
1513616783.24,29491,7.44,72984.5,-16.69,-46.55,-46.61,0,*68
1513616784.48,29492,7.44,72988.3,-16.67,-46.83,-46.61,0,*6E
1513616785.71,29493,7.44,72988.5,-16.67,-46.75,-46.61,0,*66
1513616786.93,29494,7.44,72988.8,-16.67,-46.75,-46.75,0,*64
1513616788.18,29495,7.44,72994.8,-16.69,-46.83,-46.75,0,*62
1513616789.44,29496,7.44,72988.8,-16.69,-46.61,-46.75,0,*6D
1513616790.66,29497,7.44,72992.5,-16.67,-46.83,-46.97,0,*62
1513616791.91,29498,7.44,72994.8,-16.69,-46.97,-46.83,0,*63
1513616793.16,29499,7.44,72998.0,-16.69,-46.97,-46.83,0,*62
1513616794.41,29500,7.44,72996.5,-16.69,-46.83,-46.75,0,*6F
1513616795.65,29501,7.44,72996.0,-16.69,-46.83,-46.75,0,*6E
1513616796.94,29502,7.44,73002.3,-16.73,-46.69,-46.69,0,*6F
1513616798.24,29503,7.44,72996.3,-16.73,-46.49,-46.49,0,*6E
1513616799.53,29504,7.44,72998.0,-16.73,-46.61,-46.61,0,*69
1513616800.81,29505,7.44,73002.5,-16.73,-46.61,-46.61,0,*68
1513616802.1,29506,7.44,73000.5,-16.73,-46.61,-46.41,0,*69
1513616803.39,29507,7.44,73002.5,-16.73,-46.41,-46.27,0,*6A
1513616804.68,29508,7.44,72996.3,-16.73,-46.41,-46.27,0,*65
1513616805.98,29509,7.44,73000.5,-16.73,-46.49,-46.49,0,*64
1513616807.27,29510,7.44,72994.0,-16.73,-46.49,-46.41,0,*64
1513616808.57,29511,7.44,72988.8,-16.73,-46.49,-46.49,0,*6D
1513616809.87,29512,7.44,72994.3,-16.73,-46.49,-46.49,0,*6E
1513616811.15,29513,7.44,72998.5,-16.73,-46.61,-46.61,0,*6F
1513616812.41,29514,7.44,72998.3,-16.75,-46.69,-46.61,0,*66
1513616813.69,29515,7.44,72998.3,-16.73,-46.69,-46.83,0,*6D
1513616814.95,29516,7.44,72992.5,-16.73,-46.69,-46.83,0,*6E
1513616816.18,29517,7.44,72992.0,-16.75,-46.83,-46.83,0,*6D
1513616817.47,29518,7.44,72994.5,-16.73,-46.69,-46.69,0,*64
1513616818.74,29519,7.44,72998.8,-16.75,-46.61,-46.49,0,*69
1513616820.03,29520,7.44,72996.0,-16.73,-46.49,-46.41,0,*67
1513616821.33,29521,7.44,72990.0,-16.73,-46.49,-46.49,0,*6E
1513616822.62,29522,7.44,72992.0,-16.73,-46.69,-46.61,0,*65
1513616823.9,29523,7.44,72994.3,-16.73,-46.61,-46.61,0,*6C
1513616825.17,29524,7.44,72992.8,-16.75,-46.61,-46.61,0,*6D
1513616826.46,29525,7.44,72992.0,-16.73,-46.61,-46.69,0,*62
1513616827.75,29526,7.44,72992.5,-16.73,-46.61,-46.49,0,*63
1513616829.01,29527,7.44,72992.8,-16.75,-46.61,-46.61,0,*6E
1513616830.31,29528,7.44,72998.0,-16.73,-46.61,-46.49,0,*6D
1513616831.58,29529,7.44,72998.8,-16.73,-46.27,-46.21,0,*60
1513616832.85,29530,7.44,72992.8,-16.73,-46.21,-46.07,0,*6A
1513616834.14,29531,7.44,72992.5,-16.73,-46.27,-46.27,0,*6F
1513616835.41,29532,7.44,72992.8,-16.73,-46.21,-46.27,0,*6A
1513616836.69,29533,7.44,72994.8,-16.75,-46.49,-46.49,0,*6B
1513616837.95,29534,7.44,72992.5,-16.75,-46.49,-46.61,0,*66
1513616839.21,29535,7.44,72994.8,-16.73,-46.41,-46.21,0,*6D
1513616840.49,29536,7.44,72998.3,-16.75,-46.27,-46.27,0,*6E
1513616841.76,29537,7.44,72996.8,-16.75,-46.07,-46.07,0,*6F
1513616843.06,29538,7.44,72996.5,-16.73,-46.27,-46.27,0,*66
1513616844.36,29539,7.44,72998.5,-16.73,-46.27,-46.07,0,*65
1513616845.65,29540,7.44,72998.8,-16.73,-46.49,-46.41,0,*61
1513616846.94,29541,7.44,72998.5,-16.73,-46.41,-46.27,0,*68
1513616848.24,29542,7.44,72996.8,-16.73,-46.49,-46.49,0,*6B
1513616849.51,29543,7.44,72994.3,-16.73,-46.21,-46.07,0,*6E
1513616850.8,29544,7.44,72998.5,-16.73,-46.41,-46.27,0,*6D
1513616852.04,29545,7.44,73002.5,-16.69,-46.21,-46.01,0,*65
1513616853.29,29546,7.44,72998.5,-16.69,-46.01,-46.01,0,*64
1513616854.55,29547,7.44,72998.5,-16.69,-46.41,-46.35,0,*66
1513616855.82,29548,7.44,72994.3,-16.69,-46.41,-46.21,0,*6C
1513616857.1,29549,7.44,72996.0,-16.69,-46.41,-46.41,0,*6B
1513616858.37,29550,7.44,72992.3,-16.69,-46.35,-46.41,0,*60
1513616859.66,29551,7.44,73000.0,-16.69,-46.61,-46.61,0,*62
1513616860.92,29552,7.44,73004.8,-16.69,-46.55,-46.61,0,*66
1513616862.18,29553,7.44,73000.0,-16.69,-46.55,-46.41,0,*65
1513616863.47,29554,7.44,72998.5,-16.69,-46.41,-46.41,0,*67
1513616864.76,29555,7.44,73000.3,-16.73,-46.61,-46.61,0,*6D
1513616866.02,29556,7.44,73000.8,-16.75,-46.69,-46.69,0,*68
1513616867.28,29557,7.44,73002.8,-16.75,-46.61,-46.61,0,*69
1513616868.57,29558,7.44,73000.3,-16.73,-46.41,-46.41,0,*60
1513616869.86,29559,7.44,72996.8,-16.73,-46.41,-46.27,0,*61
1513616871.15,29560,7.44,72998.5,-16.73,-46.41,-46.49,0,*63
1513616872.44,29561,7.44,72998.5,-16.73,-46.61,-46.61,0,*6A
1513616873.73,29562,7.44,72998.0,-16.73,-46.49,-46.49,0,*69
1513616875.01,29563,7.44,72996.0,-16.75,-46.49,-46.49,0,*6E
1513616876.28,29564,7.44,72998.8,-16.75,-46.49,-46.49,0,*69
1513616877.57,29565,7.44,72994.5,-16.73,-46.41,-46.27,0,*6E
1513616878.87,29566,7.44,72994.3,-16.73,-46.61,-46.49,0,*67
1513616880.13,29567,7.44,72994.3,-16.73,-46.83,-46.69,0,*68
1513616881.41,29568,7.44,72992.8,-16.75,-46.89,-46.89,0,*65
1513616882.69,29569,7.44,72992.5,-16.73,-46.69,-46.61,0,*6A
1513616883.96,29570,7.44,72992.8,-16.73,-46.83,-46.69,0,*6E
1513616885.25,29571,7.44,72994.5,-16.73,-46.69,-46.69,0,*6B
1513616886.54,29572,7.44,72988.5,-16.73,-46.61,-46.61,0,*68
1513616887.83,29573,7.44,72988.5,-16.73,-46.61,-46.49,0,*63
1513616889.1,29574,7.44,72994.0,-16.75,-46.61,-46.49,0,*62
1513616890.39,29575,7.44,72988.0,-16.73,-46.49,-46.41,0,*67
1513616891.67,29576,7.38,72982.5,-16.75,-46.49,-46.49,0,*6A
1513616892.94,29577,7.44,72988.5,-16.75,-46.69,-46.49,0,*69
1513616894.2,29578,7.44,72992.0,-16.75,-46.61,-46.69,0,*6C
1513616895.47,29579,7.44,72994.5,-16.75,-46.61,-46.61,0,*65
1513616896.73,29580,7.44,72990.5,-16.75,-46.61,-46.69,0,*6B
1513616898.02,29581,7.44,72984.8,-16.73,-46.61,-46.61,0,*64
1513616899.28,29582,7.44,72980.0,-16.75,-46.69,-46.61,0,*69
1513616900.53,29583,7.44,72988.0,-16.75,-46.83,-46.69,0,*64
1513616901.8,29584,7.44,72994.5,-16.75,-46.61,-46.49,0,*6D
1513616903.08,29585,7.44,72992.3,-16.73,-46.61,-46.61,0,*60